Time,TemperatureF,DewpointF,PressureIn,WindDirection,WindDirectionDegrees,WindSpeedMPH,WindSpeedGustMPH,Humidity,HourlyPrecipIn,Conditions,Clouds,dailyrainin,SolarRadiationWatts/m^2,SoftwareType,DateUTC
2013-09-16 00:00:00,63.4,58.5,30.05,SW,233,0.0,0.0,84,0.00,,,0.00,0,Wunderground v.1.15,2013-09-16 04:00:00,
2013-09-16 00:01:00,63.4,58.5,30.05,SW,233,0.0,1.0,84,0.00,,,0.00,0,Wunderground v.1.15,2013-09-16 04:01:00,
2013-09-16 00:02:00,63.3,58.7,30.05,SW,233,0.0,1.0,85,0.00,,,0.00,0,Wunderground v.1.15,2013-09-16 04:02:00,
2013-09-16 00:07:00,63.2,58.9,30.05,SW,233,0.0,1.0,86,0.00,,,0.00,0,Wunderground v.1.15,2013-09-16 04:07:00,
2013-09-16 00:12:00,63.2,58.9,30.06,SW,233,0.0,0.0,86,0.00,,,0.00,0,Wunderground v.1.15,2013-09-16 04:12:00,
2013-09-16 00:17:00,63.2,58.6,30.06,SW,233,0.0,0.0,85,0.00,,,0.00,0,Wunderground v.1.15,2013-09-16 04:17:00,
2013-09-16 00:22:00,63.2,58.9,30.06,SW,233,0.0,0.0,86,0.00,,,0.00,0,Wunderground v.1.15,2013-09-16 04:22:00,
2013-09-16 00:27:00,63.3,58.7,30.06,SW,233,0.0,0.0,85,0.00,,,0.00,0,Wunderground v.1.15,2013-09-16 04:27:00,
2013-09-16 00:32:00,63.0,58.7,30.06,SW,233,0.0,0.0,86,0.00,,,0.00,0,Wunderground v.1.15,2013-09-16 04:32:00,
2013-09-16 00:37:00,62.7,58.8,30.06,SW,233,0.0,0.0,87,0.00,,,0.00,0,Wunderground v.1.15,2013-09-16 04:37:00,
2013-09-16 00:42:00,62.7,58.8,30.06,SW,233,0.0,0.0,87,0.00,,,0.00,0,Wunderground v.1.15,2013-09-16 04:42:00,
2013-09-16 00:47:00,62.8,58.9,30.06,SW,233,0.0,0.0,87,0.00,,,0.00,0,Wunderground v.1.15,2013-09-16 04:47:00,
2013-09-16 00:52:00,63.0,59.4,30.06,SW,233,0.0,0.0,88,0.00,,,0.00,0,Wunderground v.1.15,2013-09-16 04:52:00,
2013-09-16 00:57:00,63.2,59.3,30.06,SW,233,0.0,0.0,87,0.00,,,0.00,0,Wunderground v.1.15,2013-09-16 04:57:00,
2013-09-16 01:02:00,63.4,59.5,30.06,SW,233,0.0,0.0,87,0.00,,,0.00,0,Wunderground v.1.15,2013-09-16 05:02:00,
2013-09-16 01:07:00,63.5,59.6,30.06,SW,233,0.0,0.0,87,0.00,,,0.00,0,Wunderground v.1.15,2013-09-16 05:07:00,
2013-09-16 01:12:00,63.7,59.4,30.06,SW,233,0.0,0.0,86,0.00,,,0.00,0,Wunderground v.1.15,2013-09-16 05:12:00,
2013-09-16 01:17:00,63.7,59.4,30.06,SW,233,0.0,0.0,86,0.00,,,0.00,0,Wunderground v.1.15,2013-09-16 05:17:00,
2013-09-16 01:22:00,63.7,59.8,30.07,SW,233,0.0,0.0,87,0.00,,,0.00,0,Wunderground v.1.15,2013-09-16 05:22:00,
2013-09-16 01:27:00,63.5,59.6,30.07,SW,233,0.0,0.0,87,0.00,,,0.00,0,Wunderground v.1.15,2013-09-16 05:27:00,
2013-09-16 01:32:00,63.4,59.5,30.07,SW,233,0.0,1.0,87,0.00,,,0.00,0,Wunderground v.1.15,2013-09-16 05:32:00,
2013-09-16 01:37:00,63.5,59.6,30.07,SW,233,0.0,1.0,87,0.00,,,0.00,0,Wunderground v.1.15,2013-09-16 05:37:00,
2013-09-16 01:42:00,63.6,59.7,30.07,SW,233,0.0,1.0,87,0.00,,,0.00,0,Wunderground v.1.15,2013-09-16 05:42:00,
2013-09-16 01:47:00,63.8,59.9,30.07,SW,233,0.0,1.0,87,0.00,,,0.00,0,Wunderground v.1.15,2013-09-16 05:47:00,
2013-09-16 01:52:00,63.9,60.0,30.07,SW,233,0.0,1.0,87,0.00,,,0.00,0,Wunderground v.1.15,2013-09-16 05:52:00,
2013-09-16 01:57:00,64.0,60.1,30.07,SW,233,0.0,1.0,87,0.00,,,0.00,0,Wunderground v.1.15,2013-09-16 05:57:00,
2013-09-16 02:02:00,64.1,60.2,30.07,SW,233,0.0,2.0,87,0.00,,,0.00,0,Wunderground v.1.15,2013-09-16 06:02:00,
2013-09-16 02:07:00,64.3,60.0,30.08,SW,233,1.0,2.0,86,0.00,,,0.00,0,Wunderground v.1.15,2013-09-16 06:07:00,
2013-09-16 02:12:00,64.4,60.1,30.07,SW,233,2.0,2.0,86,0.00,,,0.00,0,Wunderground v.1.15,2013-09-16 06:12:00,
2013-09-16 02:17:00,64.5,60.2,30.08,SW,233,2.0,2.0,86,0.00,,,0.00,0,Wunderground v.1.15,2013-09-16 06:17:00,
2013-09-16 02:22:00,64.6,60.3,30.08,SW,233,1.0,2.0,86,0.00,,,0.00,0,Wunderground v.1.15,2013-09-16 06:22:00,
2013-09-16 02:27:00,64.6,60.3,30.08,SW,233,1.0,2.0,86,0.00,,,0.00,0,Wunderground v.1.15,2013-09-16 06:27:00,
2013-09-16 02:32:00,64.6,60.3,30.08,SW,233,0.0,3.0,86,0.00,,,0.00,0,Wunderground v.1.15,2013-09-16 06:32:00,
2013-09-16 02:37:00,64.6,60.3,30.08,SW,233,0.0,3.0,86,0.00,,,0.00,0,Wunderground v.1.15,2013-09-16 06:37:00,
2013-09-16 02:42:00,64.7,60.1,30.08,WSW,255,2.0,4.0,85,0.00,,,0.00,0,Wunderground v.1.15,2013-09-16 06:42:00,
2013-09-16 02:47:00,65.0,60.4,30.07,WSW,250,3.0,4.0,85,0.00,,,0.00,0,Wunderground v.1.15,2013-09-16 06:47:00,
2013-09-16 02:52:00,65.2,60.2,30.07,WSW,244,2.0,3.0,84,0.00,,,0.00,0,Wunderground v.1.15,2013-09-16 06:52:00,
2013-09-16 02:57:00,65.4,60.4,30.07,WSW,244,3.0,3.0,84,0.00,,,0.00,0,Wunderground v.1.15,2013-09-16 06:57:00,
2013-09-16 03:02:00,65.5,60.5,30.07,WSW,244,3.0,3.0,84,0.00,,,0.00,0,Wunderground v.1.15,2013-09-16 07:02:00,
2013-09-16 03:07:00,65.6,60.3,30.08,WSW,242,4.0,4.0,83,0.00,,,0.00,0,Wunderground v.1.15,2013-09-16 07:07:00,
2013-09-16 03:12:00,65.6,60.3,30.08,SW,236,3.0,3.0,83,0.00,,,0.00,0,Wunderground v.1.15,2013-09-16 07:12:00,
2013-09-16 03:17:00,65.6,60.3,30.08,WSW,243,1.0,4.0,83,0.00,,,0.00,0,Wunderground v.1.15,2013-09-16 07:17:00,
2013-09-16 03:22:00,65.6,60.3,30.08,WSW,241,0.0,2.0,83,0.00,,,0.00,0,Wunderground v.1.15,2013-09-16 07:22:00,
2013-09-16 03:27:00,65.5,60.5,30.08,WSW,241,0.0,2.0,84,0.00,,,0.00,0,Wunderground v.1.15,2013-09-16 07:27:00,
2013-09-16 03:32:00,65.4,60.4,30.08,WSW,241,0.0,1.0,84,0.00,,,0.00,0,Wunderground v.1.15,2013-09-16 07:32:00,
2013-09-16 03:37:00,65.3,60.7,30.08,WSW,241,0.0,1.0,85,0.00,,,0.00,0,Wunderground v.1.15,2013-09-16 07:37:00,
2013-09-16 03:43:00,65.2,60.6,30.08,WSW,241,0.0,0.0,85,0.00,,,0.00,0,Wunderground v.1.15,2013-09-16 07:43:00,
2013-09-16 03:48:00,65.0,60.4,30.07,WSW,241,0.0,0.0,85,0.00,,,0.00,0,Wunderground v.1.15,2013-09-16 07:48:00,
2013-09-16 03:53:00,64.6,60.3,30.08,WSW,241,0.0,0.0,86,0.00,,,0.00,0,Wunderground v.1.15,2013-09-16 07:53:00,
2013-09-16 03:58:00,64.6,60.6,30.07,WSW,241,0.0,1.0,87,0.00,,,0.00,0,Wunderground v.1.15,2013-09-16 07:58:00,
2013-09-16 04:03:00,64.3,60.7,30.07,ESE,103,0.0,3.0,88,0.00,,,0.00,0,Wunderground v.1.15,2013-09-16 08:03:00,
2013-09-16 04:08:00,64.3,60.7,30.07,ESE,113,1.0,3.0,88,0.00,,,0.00,0,Wunderground v.1.15,2013-09-16 08:08:00,
2013-09-16 04:13:00,64.5,61.2,30.07,NE,50,2.0,3.0,89,0.00,,,0.00,0,Wunderground v.1.15,2013-09-16 08:13:00,
2013-09-16 04:18:00,64.4,60.8,30.08,NE,50,0.0,3.0,88,0.00,,,0.00,0,Wunderground v.1.15,2013-09-16 08:18:00,
2013-09-16 04:23:00,64.5,60.9,30.07,NE,50,0.0,1.0,88,0.00,,,0.00,0,Wunderground v.1.15,2013-09-16 08:23:00,
2013-09-16 04:28:00,64.5,60.9,30.08,SSE,163,0.0,2.0,88,0.00,,,0.00,0,Wunderground v.1.15,2013-09-16 08:28:00,
2013-09-16 04:33:00,64.7,60.7,30.08,SSE,163,1.0,3.0,87,0.00,,,0.00,0,Wunderground v.1.15,2013-09-16 08:33:00,
2013-09-16 04:38:00,64.8,60.8,30.08,SSE,164,0.0,0.0,87,0.00,,,0.00,0,Wunderground v.1.15,2013-09-16 08:38:00,
2013-09-16 04:43:00,64.7,60.7,30.08,SSE,164,0.0,1.0,87,0.00,,,0.00,0,Wunderground v.1.15,2013-09-16 08:43:00,
2013-09-16 04:48:00,64.6,60.6,30.08,SSE,164,0.0,0.0,87,0.00,,,0.00,0,Wunderground v.1.15,2013-09-16 08:48:00,
2013-09-16 04:53:00,64.7,60.7,30.09,SSE,164,0.0,0.0,87,0.00,,,0.00,0,Wunderground v.1.15,2013-09-16 08:53:00,
2013-09-16 04:58:00,64.8,60.8,30.09,NE,35,3.0,3.0,87,0.00,,,0.00,0,Wunderground v.1.15,2013-09-16 08:58:00,
2013-09-16 05:03:00,64.7,61.1,30.09,NNE,24,0.0,4.0,88,0.00,,,0.00,0,Wunderground v.1.15,2013-09-16 09:03:00,
2013-09-16 05:08:00,64.4,61.1,30.09,NNE,15,0.0,1.0,89,0.00,,,0.00,0,Wunderground v.1.15,2013-09-16 09:08:00,
2013-09-16 05:13:00,64.2,60.9,30.09,North,355,1.0,1.0,89,0.00,,,0.00,0,Wunderground v.1.15,2013-09-16 09:13:00,
2013-09-16 05:18:00,64.2,60.2,30.08,West,269,0.0,1.0,87,0.00,,,0.00,0,Wunderground v.1.15,2013-09-16 09:18:00,
2013-09-16 05:23:00,64.5,60.2,30.08,WNW,290,1.0,2.0,86,0.00,,,0.00,0,Wunderground v.1.15,2013-09-16 09:23:00,
2013-09-16 05:28:00,64.8,60.5,30.09,West,265,3.0,3.0,86,0.00,,,0.00,0,Wunderground v.1.15,2013-09-16 09:28:00,
2013-09-16 05:33:00,64.8,61.2,30.09,SW,236,2.0,5.0,88,0.00,,,0.00,0,Wunderground v.1.15,2013-09-16 09:33:00,
2013-09-16 05:38:00,64.5,61.2,30.09,WSW,237,0.0,2.0,89,0.00,,,0.00,0,Wunderground v.1.15,2013-09-16 09:38:00,
2013-09-16 05:43:00,64.2,60.9,30.09,WSW,237,0.0,2.0,89,0.00,,,0.00,0,Wunderground v.1.15,2013-09-16 09:43:00,
2013-09-16 05:48:00,63.9,60.9,30.09,WSW,237,0.0,1.0,90,0.00,,,0.00,0,Wunderground v.1.15,2013-09-16 09:48:00,
2013-09-16 05:53:00,63.8,60.8,30.09,WSW,237,0.0,1.0,90,0.00,,,0.00,0,Wunderground v.1.15,2013-09-16 09:53:00,
2013-09-16 05:58:00,63.9,60.9,30.08,WSW,237,0.0,0.0,90,0.00,,,0.00,0,Wunderground v.1.15,2013-09-16 09:58:00,
2013-09-16 06:03:00,64.0,61.3,30.08,SW,219,0.0,2.0,91,0.00,,,0.00,0,Wunderground v.1.15,2013-09-16 10:03:00,
2013-09-16 06:08:00,63.8,61.1,30.08,SW,219,1.0,2.0,91,0.00,,,0.00,0,Wunderground v.1.15,2013-09-16 10:08:00,
2013-09-16 06:13:00,63.7,61.0,30.08,SW,219,1.0,2.0,91,0.00,,,0.00,0,Wunderground v.1.15,2013-09-16 10:13:00,
2013-09-16 06:18:00,63.8,61.1,30.08,SW,219,1.0,1.0,91,0.00,,,0.00,0,Wunderground v.1.15,2013-09-16 10:18:00,
2013-09-16 06:23:00,63.7,61.0,30.09,SW,219,0.0,2.0,91,0.00,,,0.00,0,Wunderground v.1.15,2013-09-16 10:23:00,
2013-09-16 06:28:00,63.8,61.1,30.09,SW,219,0.0,0.0,91,0.00,,,0.00,0,Wunderground v.1.15,2013-09-16 10:28:00,
2013-09-16 06:33:00,63.7,61.0,30.09,SW,219,0.0,0.0,91,0.00,,,0.00,0,Wunderground v.1.15,2013-09-16 10:33:00,
2013-09-16 06:38:00,63.8,61.4,30.09,SW,219,0.0,0.0,92,0.00,,,0.00,0,Wunderground v.1.15,2013-09-16 10:38:00,
2013-09-16 06:43:00,63.7,61.0,30.09,SW,219,0.0,0.0,91,0.00,,,0.00,0,Wunderground v.1.15,2013-09-16 10:43:00,
2013-09-16 06:48:00,63.7,61.3,30.10,SW,219,0.0,0.0,92,0.00,,,0.00,0,Wunderground v.1.15,2013-09-16 10:48:00,
2013-09-16 06:53:00,63.8,61.4,30.10,SW,219,0.0,2.0,92,0.00,,,0.00,0,Wunderground v.1.15,2013-09-16 10:53:00,
2013-09-16 06:58:00,63.8,61.4,30.10,SW,219,0.0,0.0,92,0.00,,,0.00,0,Wunderground v.1.15,2013-09-16 10:58:00,
2013-09-16 07:03:00,64.0,61.3,30.10,SW,219,0.0,0.0,91,0.00,,,0.00,0,Wunderground v.1.15,2013-09-16 11:03:00,
2013-09-16 07:08:00,64.1,61.4,30.10,SW,219,0.0,0.0,91,0.00,,,0.00,0,Wunderground v.1.15,2013-09-16 11:08:00,
2013-09-16 07:13:00,64.3,61.6,30.10,NE,53,4.0,4.0,91,0.00,,,0.00,0,Wunderground v.1.15,2013-09-16 11:13:00,
2013-09-16 07:18:00,64.1,61.4,30.11,NE,43,5.0,5.0,91,0.00,,,0.00,0,Wunderground v.1.15,2013-09-16 11:18:00,
2013-09-16 07:23:00,64.0,61.6,30.11,NE,40,6.0,7.0,92,0.00,,,0.00,0,Wunderground v.1.15,2013-09-16 11:23:00,
2013-09-16 07:28:00,63.7,61.3,30.11,NE,41,4.0,7.0,92,0.00,,,0.00,0,Wunderground v.1.15,2013-09-16 11:28:00,
2013-09-16 07:33:00,63.6,60.9,30.12,NE,52,4.0,7.0,91,0.00,,,0.00,0,Wunderground v.1.15,2013-09-16 11:33:00,
2013-09-16 07:38:00,63.6,60.9,30.12,ENE,61,2.0,4.0,91,0.00,,,0.00,0,Wunderground v.1.15,2013-09-16 11:38:00,
2013-09-16 07:43:00,63.6,60.9,30.12,ENE,63,1.0,5.0,91,0.00,,,0.00,0,Wunderground v.1.15,2013-09-16 11:43:00,
2013-09-16 07:48:00,63.6,60.9,30.12,ENE,63,2.0,2.0,91,0.00,,,0.00,5,Wunderground v.1.15,2013-09-16 11:48:00,
2013-09-16 07:53:00,63.7,61.0,30.12,ESE,117,2.0,4.0,91,0.00,,,0.00,9,Wunderground v.1.15,2013-09-16 11:53:00,
2013-09-16 07:58:00,63.8,61.1,30.12,ESE,117,1.0,1.0,91,0.00,,,0.00,16,Wunderground v.1.15,2013-09-16 11:58:00,
2013-09-16 08:03:00,63.8,61.1,30.12,SE,139,1.0,3.0,91,0.00,,,0.00,14,Wunderground v.1.15,2013-09-16 12:03:00,
2013-09-16 08:08:00,63.8,61.1,30.12,South,186,1.0,1.0,91,0.00,,,0.00,12,Wunderground v.1.15,2013-09-16 12:08:00,
2013-09-16 08:13:00,63.7,61.0,30.12,South,186,0.0,2.0,91,0.00,,,0.00,12,Wunderground v.1.15,2013-09-16 12:13:00,
2013-09-16 08:19:00,63.8,61.1,30.12,SE,144,0.0,2.0,91,0.00,,,0.00,16,Wunderground v.1.15,2013-09-16 12:19:00,
2013-09-16 08:24:00,63.7,61.0,30.12,SE,144,0.0,2.0,91,0.00,,,0.00,14,Wunderground v.1.15,2013-09-16 12:24:00,
2013-09-16 08:29:00,63.7,61.0,30.12,SE,144,0.0,0.0,91,0.00,,,0.00,16,Wunderground v.1.15,2013-09-16 12:29:00,
2013-09-16 08:34:00,63.7,61.0,30.13,SE,132,0.0,2.0,91,0.00,,,0.00,21,Wunderground v.1.15,2013-09-16 12:34:00,
2013-09-16 08:39:00,63.8,61.1,30.12,ESE,105,3.0,3.0,91,0.00,,,0.00,32,Wunderground v.1.15,2013-09-16 12:39:00,
2013-09-16 08:44:00,63.8,61.1,30.12,ESE,115,4.0,7.0,91,0.00,,,0.00,33,Wunderground v.1.15,2013-09-16 12:44:00,
2013-09-16 08:49:00,63.7,61.0,30.12,ESE,119,3.0,4.0,91,0.00,,,0.00,26,Wunderground v.1.15,2013-09-16 12:49:00,
2013-09-16 08:54:00,63.7,61.0,30.12,ESE,119,2.0,4.0,91,0.00,,,0.00,21,Wunderground v.1.15,2013-09-16 12:54:00,
2013-09-16 08:59:00,63.7,61.0,30.13,East,98,3.0,3.0,91,0.00,,,0.00,23,Wunderground v.1.15,2013-09-16 12:59:00,
2013-09-16 09:04:00,63.7,61.0,30.13,East,98,2.0,3.0,91,0.00,,,0.00,21,Wunderground v.1.15,2013-09-16 13:04:00,
2013-09-16 09:09:00,63.6,60.9,30.13,East,99,1.0,3.0,91,0.00,,,0.00,19,Wunderground v.1.15,2013-09-16 13:09:00,
2013-09-16 09:14:00,63.6,60.9,30.13,East,101,0.0,3.0,91,0.00,,,0.00,23,Wunderground v.1.15,2013-09-16 13:14:00,
2013-09-16 09:19:00,63.7,61.0,30.13,South,182,0.0,1.0,91,0.00,,,0.00,30,Wunderground v.1.15,2013-09-16 13:19:00,
2013-09-16 09:24:00,63.8,61.1,30.13,South,182,0.0,2.0,91,0.00,,,0.00,65,Wunderground v.1.15,2013-09-16 13:24:00,
2013-09-16 09:29:00,64.0,61.3,30.13,South,183,0.0,2.0,91,0.00,,,0.00,72,Wunderground v.1.15,2013-09-16 13:29:00,
2013-09-16 09:34:00,64.2,61.5,30.13,South,190,5.0,5.0,91,0.00,,,0.00,49,Wunderground v.1.15,2013-09-16 13:34:00,
2013-09-16 09:39:00,64.3,61.6,30.13,SSW,192,1.0,4.0,91,0.00,,,0.00,39,Wunderground v.1.15,2013-09-16 13:39:00,
2013-09-16 09:44:00,64.3,61.6,30.13,SSW,201,0.0,4.0,91,0.00,,,0.00,35,Wunderground v.1.15,2013-09-16 13:44:00,
2013-09-16 09:49:00,64.5,61.8,30.14,SSW,213,3.0,4.0,91,0.00,,,0.00,33,Wunderground v.1.15,2013-09-16 13:49:00,
2013-09-16 09:54:00,64.4,61.4,30.14,SW,215,0.0,5.0,90,0.00,,,0.00,51,Wunderground v.1.15,2013-09-16 13:54:00,
2013-09-16 09:59:00,64.5,61.5,30.14,South,190,0.0,2.0,90,0.00,,,0.00,65,Wunderground v.1.15,2013-09-16 13:59:00,
2013-09-16 10:04:00,64.5,61.5,30.14,South,171,2.0,3.0,90,0.00,,,0.00,84,Wunderground v.1.15,2013-09-16 14:04:00,
2013-09-16 10:09:00,64.5,61.5,30.14,SE,128,0.0,4.0,90,0.00,,,0.00,134,Wunderground v.1.15,2013-09-16 14:09:00,
2013-09-16 10:14:00,64.8,61.8,30.15,SE,128,2.0,4.0,90,0.00,,,0.00,114,Wunderground v.1.15,2013-09-16 14:14:00,
2013-09-16 10:19:00,64.8,61.8,30.15,SE,128,0.0,1.0,90,0.00,,,0.00,128,Wunderground v.1.15,2013-09-16 14:19:00,
2013-09-16 10:24:00,65.0,61.7,30.15,SE,128,3.0,4.0,89,0.00,,,0.00,174,Wunderground v.1.15,2013-09-16 14:24:00,
2013-09-16 10:29:00,65.0,61.7,30.15,ESE,114,3.0,4.0,89,0.00,,,0.00,199,Wunderground v.1.15,2013-09-16 14:29:00,
2013-09-16 10:34:00,65.3,62.0,30.15,East,92,5.0,5.0,89,0.00,,,0.00,237,Wunderground v.1.15,2013-09-16 14:34:00,
2013-09-16 10:39:00,65.4,62.4,30.16,East,101,1.0,3.0,90,0.00,,,0.00,178,Wunderground v.1.15,2013-09-16 14:39:00,
2013-09-16 10:44:00,65.5,61.9,30.16,ESE,108,5.0,6.0,88,0.00,,,0.00,174,Wunderground v.1.15,2013-09-16 14:44:00,
2013-09-16 10:49:00,65.7,62.0,30.16,ENE,70,4.0,7.0,88,0.00,,,0.00,232,Wunderground v.1.15,2013-09-16 14:49:00,
2013-09-16 10:54:00,65.9,62.6,30.16,ENE,65,1.0,7.0,89,0.00,,,0.00,244,Wunderground v.1.15,2013-09-16 14:54:00,
2013-09-16 10:59:00,66.1,62.4,30.17,NE,53,2.0,4.0,88,0.00,,,0.00,267,Wunderground v.1.15,2013-09-16 14:59:00,
2013-09-16 11:04:00,66.2,61.9,30.17,ENE,68,2.0,5.0,86,0.00,,,0.00,332,Wunderground v.1.15,2013-09-16 15:04:00,
2013-09-16 11:09:00,66.4,62.1,30.17,ENE,69,0.0,4.0,86,0.00,,,0.00,269,Wunderground v.1.15,2013-09-16 15:09:00,
2013-09-16 11:14:00,66.5,62.5,30.17,ENE,59,3.0,5.0,87,0.00,,,0.00,287,Wunderground v.1.15,2013-09-16 15:14:00,
2013-09-16 11:19:00,66.8,62.5,30.17,NE,48,3.0,4.0,86,0.00,,,0.00,278,Wunderground v.1.15,2013-09-16 15:19:00,
2013-09-16 11:24:00,66.7,62.0,30.18,East,82,3.0,7.0,85,0.00,,,0.00,253,Wunderground v.1.15,2013-09-16 15:24:00,
2013-09-16 11:29:00,66.8,62.1,30.18,ENE,67,2.0,3.0,85,0.00,,,0.00,306,Wunderground v.1.15,2013-09-16 15:29:00,
2013-09-16 11:34:00,67.1,62.8,30.17,ENE,58,4.0,4.0,86,0.00,,,0.00,366,Wunderground v.1.15,2013-09-16 15:34:00,
2013-09-16 11:39:00,67.3,62.6,30.18,East,91,5.0,6.0,85,0.00,,,0.00,346,Wunderground v.1.15,2013-09-16 15:39:00,
2013-09-16 11:44:00,67.2,62.2,30.17,ESE,107,0.0,6.0,84,0.00,,,0.00,374,Wunderground v.1.15,2013-09-16 15:44:00,
2013-09-16 11:49:00,67.9,62.9,30.17,East,101,5.0,6.0,84,0.00,,,0.00,364,Wunderground v.1.15,2013-09-16 15:49:00,
2013-09-16 11:54:00,67.8,63.1,30.18,East,95,5.0,7.0,85,0.00,,,0.00,350,Wunderground v.1.15,2013-09-16 15:54:00,
2013-09-16 11:59:00,68.0,63.0,30.18,ESE,109,1.0,7.0,84,0.00,,,0.00,468,Wunderground v.1.15,2013-09-16 15:59:00,
2013-09-16 12:04:00,68.2,62.8,30.18,East,90,7.0,7.0,83,0.00,,,0.00,462,Wunderground v.1.15,2013-09-16 16:04:00,
2013-09-16 12:09:00,68.2,62.8,30.18,NE,52,4.0,4.0,83,0.00,,,0.00,299,Wunderground v.1.15,2013-09-16 16:09:00,
2013-09-16 12:14:00,68.9,63.2,30.18,ENE,61,4.0,5.0,82,0.00,,,0.00,237,Wunderground v.1.15,2013-09-16 16:14:00,
2013-09-16 12:19:00,68.7,62.3,30.18,East,96,6.0,8.0,80,0.00,,,0.00,144,Wunderground v.1.15,2013-09-16 16:19:00,
2013-09-16 12:24:00,68.2,62.1,30.18,East,80,7.0,9.0,81,0.00,,,0.00,204,Wunderground v.1.15,2013-09-16 16:24:00,
2013-09-16 12:29:00,68.3,62.2,30.18,East,79,3.0,7.0,81,0.00,,,0.00,172,Wunderground v.1.15,2013-09-16 16:29:00,
2013-09-16 12:34:00,68.3,62.2,30.17,ESE,115,4.0,8.0,81,0.00,,,0.00,243,Wunderground v.1.15,2013-09-16 16:34:00,
2013-09-16 12:39:00,68.6,62.2,30.17,ESE,106,8.0,9.0,80,0.00,,,0.00,185,Wunderground v.1.15,2013-09-16 16:39:00,
2013-09-16 12:44:00,68.2,61.8,30.18,ESE,117,3.0,9.0,80,0.00,,,0.00,91,Wunderground v.1.15,2013-09-16 16:44:00,
2013-09-16 12:49:00,68.1,62.0,30.18,SE,126,2.0,7.0,81,0.00,,,0.00,142,Wunderground v.1.15,2013-09-16 16:49:00,
2013-09-16 12:54:00,68.1,62.0,30.18,East,92,5.0,8.0,81,0.00,,,0.00,230,Wunderground v.1.15,2013-09-16 16:54:00,
2013-09-16 12:59:00,68.5,62.4,30.18,East,101,5.0,8.0,81,0.00,,,0.00,174,Wunderground v.1.15,2013-09-16 16:59:00,
2013-09-16 13:04:00,68.4,62.0,30.18,East,85,6.0,8.0,80,0.00,,,0.00,183,Wunderground v.1.15,2013-09-16 17:04:00,
2013-09-16 13:09:00,68.3,62.2,30.18,East,90,6.0,8.0,81,0.00,,,0.00,181,Wunderground v.1.15,2013-09-16 17:09:00,
2013-09-16 13:14:00,68.4,62.3,30.18,ENE,65,4.0,8.0,81,0.00,,,0.00,221,Wunderground v.1.15,2013-09-16 17:14:00,
2013-09-16 13:19:00,68.5,62.1,30.18,NE,55,5.0,7.0,80,0.00,,,0.00,241,Wunderground v.1.15,2013-09-16 17:19:00,
2013-09-16 13:24:00,68.7,62.6,30.18,East,80,5.0,7.0,81,0.00,,,0.00,260,Wunderground v.1.15,2013-09-16 17:24:00,
2013-09-16 13:29:00,68.9,61.8,30.18,ENE,76,5.0,8.0,78,0.00,,,0.00,221,Wunderground v.1.15,2013-09-16 17:29:00,
2013-09-16 13:35:00,69.0,61.9,30.18,East,82,5.0,9.0,78,0.00,,,0.00,415,Wunderground v.1.15,2013-09-16 17:35:00,
2013-09-16 13:40:00,69.1,61.9,30.18,ENE,70,4.0,8.0,78,0.00,,,0.00,355,Wunderground v.1.15,2013-09-16 17:40:00,
2013-09-16 13:45:00,69.2,61.7,30.18,ESE,107,5.0,10.0,77,0.00,,,0.00,288,Wunderground v.1.15,2013-09-16 17:45:00,
2013-09-16 13:50:00,69.0,61.5,30.18,East,83,8.0,8.0,77,0.00,,,0.00,213,Wunderground v.1.15,2013-09-16 17:50:00,
2013-09-16 13:55:00,69.5,61.6,30.18,ENE,65,4.0,8.0,76,0.00,,,0.00,230,Wunderground v.1.15,2013-09-16 17:55:00,
2013-09-16 14:00:00,69.5,61.2,30.18,ENE,60,5.0,7.0,75,0.00,,,0.00,381,Wunderground v.1.15,2013-09-16 18:00:00,
2013-09-16 14:05:00,70.1,62.2,30.18,ESE,111,4.0,9.0,76,0.00,,,0.00,220,Wunderground v.1.15,2013-09-16 18:05:00,
2013-09-16 14:10:00,70.0,62.1,30.18,ESE,110,4.0,5.0,76,0.00,,,0.00,142,Wunderground v.1.15,2013-09-16 18:10:00,
2013-09-16 14:15:00,70.1,61.8,30.18,East,96,7.0,8.0,75,0.00,,,0.00,225,Wunderground v.1.15,2013-09-16 18:15:00,
2013-09-16 14:20:00,69.9,61.2,30.18,ESE,114,4.0,7.0,74,0.00,,,0.00,262,Wunderground v.1.15,2013-09-16 18:20:00,
2013-09-16 14:25:00,69.8,61.5,30.18,East,80,5.0,8.0,75,0.00,,,0.00,171,Wunderground v.1.15,2013-09-16 18:25:00,
2013-09-16 14:30:00,69.9,61.6,30.18,ESE,109,7.0,8.0,75,0.00,,,0.00,285,Wunderground v.1.15,2013-09-16 18:30:00,
2013-09-16 14:35:00,69.8,61.9,30.18,ENE,74,5.0,10.0,76,0.00,,,0.00,230,Wunderground v.1.15,2013-09-16 18:35:00,
2013-09-16 14:40:00,70.0,62.1,30.18,ENE,76,4.0,9.0,76,0.00,,,0.00,304,Wunderground v.1.15,2013-09-16 18:40:00,
2013-09-16 14:45:00,70.1,61.4,30.18,ENE,68,3.0,11.0,74,0.00,,,0.00,381,Wunderground v.1.15,2013-09-16 18:45:00,
2013-09-16 14:50:00,70.6,61.9,30.17,ENE,74,8.0,8.0,74,0.00,,,0.00,396,Wunderground v.1.15,2013-09-16 18:50:00,
2013-09-16 14:55:00,70.9,61.8,30.17,East,81,2.0,9.0,73,0.00,,,0.00,434,Wunderground v.1.15,2013-09-16 18:55:00,
2013-09-16 15:00:00,70.9,61.0,30.17,ENE,78,1.0,9.0,71,0.00,,,0.00,366,Wunderground v.1.15,2013-09-16 19:00:00,
2013-09-16 15:05:00,70.6,61.5,30.17,ENE,75,5.0,9.0,73,0.00,,,0.00,253,Wunderground v.1.15,2013-09-16 19:05:00,
2013-09-16 15:10:00,70.7,61.6,30.17,NE,55,3.0,9.0,73,0.00,,,0.00,403,Wunderground v.1.15,2013-09-16 19:10:00,
2013-09-16 15:15:00,70.9,61.8,30.17,SE,139,0.0,9.0,73,0.00,,,0.00,357,Wunderground v.1.15,2013-09-16 19:15:00,
2013-09-16 15:20:00,70.8,61.3,30.17,ESE,105,5.0,9.0,72,0.00,,,0.00,197,Wunderground v.1.15,2013-09-16 19:20:00,
2013-09-16 15:25:00,70.5,61.4,30.17,ENE,73,3.0,10.0,73,0.00,,,0.00,329,Wunderground v.1.15,2013-09-16 19:25:00,
2013-09-16 15:30:00,70.8,61.3,30.17,ENE,66,2.0,9.0,72,0.00,,,0.00,190,Wunderground v.1.15,2013-09-16 19:30:00,
2013-09-16 15:35:00,70.4,60.9,30.17,ENE,70,3.0,9.0,72,0.00,,,0.00,118,Wunderground v.1.15,2013-09-16 19:35:00,
2013-09-16 15:40:00,70.3,61.2,30.17,NE,56,3.0,8.0,73,0.00,,,0.00,230,Wunderground v.1.15,2013-09-16 19:40:00,
2013-09-16 15:45:00,70.5,61.8,30.17,NE,44,7.0,12.0,74,0.00,,,0.00,332,Wunderground v.1.15,2013-09-16 19:45:00,
2013-09-16 15:50:00,70.9,61.4,30.16,NE,53,6.0,8.0,72,0.00,,,0.00,290,Wunderground v.1.15,2013-09-16 19:50:00,
2013-09-16 15:55:00,71.0,61.5,30.16,ENE,58,10.0,10.0,72,0.00,,,0.00,188,Wunderground v.1.15,2013-09-16 19:55:00,
2013-09-16 16:00:00,70.5,61.4,30.16,NE,55,5.0,10.0,73,0.00,,,0.00,135,Wunderground v.1.15,2013-09-16 20:00:00,
2013-09-16 16:05:00,70.2,61.1,30.16,ENE,72,7.0,11.0,73,0.00,,,0.00,174,Wunderground v.1.15,2013-09-16 20:05:00,
2013-09-16 16:10:00,70.4,61.3,30.16,ENE,57,5.0,9.0,73,0.00,,,0.00,278,Wunderground v.1.15,2013-09-16 20:10:00,
2013-09-16 16:15:00,70.4,61.3,30.16,ESE,121,9.0,11.0,73,0.00,,,0.00,323,Wunderground v.1.15,2013-09-16 20:15:00,
2013-09-16 16:20:00,70.7,61.6,30.16,East,93,7.0,11.0,73,0.00,,,0.00,294,Wunderground v.1.15,2013-09-16 20:20:00,
2013-09-16 16:25:00,71.0,61.9,30.16,ENE,74,4.0,11.0,73,0.00,,,0.00,374,Wunderground v.1.15,2013-09-16 20:25:00,
2013-09-16 16:30:00,71.5,62.4,30.16,East,84,7.0,8.0,73,0.00,,,0.00,367,Wunderground v.1.15,2013-09-16 20:30:00,
2013-09-16 16:35:00,70.8,61.7,30.16,East,83,9.0,13.0,73,0.00,,,0.00,322,Wunderground v.1.15,2013-09-16 20:35:00,
2013-09-16 16:40:00,70.2,61.9,30.16,ESE,109,5.0,13.0,75,0.00,,,0.00,162,Wunderground v.1.15,2013-09-16 20:40:00,
2013-09-16 16:45:00,70.4,62.1,30.16,East,87,9.0,13.0,75,0.00,,,0.00,141,Wunderground v.1.15,2013-09-16 20:45:00,
2013-09-16 16:50:00,69.9,61.6,30.16,East,79,8.0,13.0,75,0.00,,,0.00,279,Wunderground v.1.15,2013-09-16 20:50:00,
2013-09-16 16:55:00,70.2,61.9,30.16,East,84,8.0,13.0,75,0.00,,,0.00,345,Wunderground v.1.15,2013-09-16 20:55:00,
2013-09-16 17:00:00,70.5,61.8,30.16,ENE,69,5.0,11.0,74,0.00,,,0.00,301,Wunderground v.1.15,2013-09-16 21:00:00,
2013-09-16 17:05:00,70.4,61.3,30.16,East,93,8.0,11.0,73,0.00,,,0.00,214,Wunderground v.1.15,2013-09-16 21:05:00,
2013-09-16 17:10:00,70.4,61.7,30.16,East,96,6.0,7.0,74,0.00,,,0.00,188,Wunderground v.1.15,2013-09-16 21:10:00,
2013-09-16 17:15:00,70.4,61.7,30.16,ENE,62,4.0,7.0,74,0.00,,,0.00,95,Wunderground v.1.15,2013-09-16 21:15:00,
2013-09-16 17:20:00,70.0,60.9,30.16,East,82,6.0,8.0,73,0.00,,,0.00,81,Wunderground v.1.15,2013-09-16 21:20:00,
2013-09-16 17:25:00,69.9,60.8,30.16,ENE,63,3.0,9.0,73,0.00,,,0.00,116,Wunderground v.1.15,2013-09-16 21:25:00,
2013-09-16 17:30:00,70.0,60.6,30.16,ENE,58,3.0,8.0,72,0.00,,,0.00,130,Wunderground v.1.15,2013-09-16 21:30:00,
2013-09-16 17:35:00,70.2,60.7,30.16,East,80,6.0,8.0,72,0.00,,,0.00,77,Wunderground v.1.15,2013-09-16 21:35:00,
2013-09-16 17:40:00,70.2,60.7,30.16,ENE,70,5.0,8.0,72,0.00,,,0.00,53,Wunderground v.1.15,2013-09-16 21:40:00,
2013-09-16 17:45:00,69.9,60.8,30.16,ENE,66,2.0,9.0,73,0.00,,,0.00,54,Wunderground v.1.15,2013-09-16 21:45:00,
2013-09-16 17:50:00,69.8,60.8,30.16,East,79,6.0,9.0,73,0.00,,,0.00,58,Wunderground v.1.15,2013-09-16 21:50:00,
2013-09-16 17:55:00,69.7,61.0,30.16,East,79,2.0,9.0,74,0.00,,,0.00,56,Wunderground v.1.15,2013-09-16 21:55:00,
2013-09-16 18:00:00,69.6,60.9,30.17,NE,56,6.0,9.0,74,0.00,,,0.00,49,Wunderground v.1.15,2013-09-16 22:00:00,
2013-09-16 18:05:00,69.4,60.8,30.17,ENE,67,3.0,11.0,74,0.00,,,0.00,46,Wunderground v.1.15,2013-09-16 22:05:00,
2013-09-16 18:10:00,69.1,60.5,30.17,NE,51,4.0,9.0,74,0.00,,,0.00,58,Wunderground v.1.15,2013-09-16 22:10:00,
2013-09-16 18:16:00,69.1,60.5,30.16,East,85,7.0,10.0,74,0.00,,,0.00,84,Wunderground v.1.15,2013-09-16 22:16:00,
2013-09-16 18:21:00,68.9,59.9,30.16,East,84,10.0,10.0,73,0.00,,,0.00,102,Wunderground v.1.15,2013-09-16 22:21:00,
2013-09-16 18:26:00,68.9,59.9,30.16,East,98,9.0,10.0,73,0.00,,,0.00,109,Wunderground v.1.15,2013-09-16 22:26:00,
2013-09-16 18:31:00,68.9,60.3,30.16,East,91,6.0,9.0,74,0.00,,,0.00,116,Wunderground v.1.15,2013-09-16 22:31:00,
2013-09-16 18:36:00,68.9,60.3,30.17,East,79,6.0,9.0,74,0.00,,,0.00,116,Wunderground v.1.15,2013-09-16 22:36:00,
2013-09-16 18:41:00,69.0,60.4,30.17,ENE,67,3.0,5.0,74,0.00,,,0.00,88,Wunderground v.1.15,2013-09-16 22:41:00,
2013-09-16 18:46:00,68.9,60.3,30.17,ENE,63,7.0,7.0,74,0.00,,,0.00,86,Wunderground v.1.15,2013-09-16 22:46:00,
2013-09-16 18:51:00,68.8,60.6,30.17,ESE,110,3.0,7.0,75,0.00,,,0.00,67,Wunderground v.1.15,2013-09-16 22:51:00,
2013-09-16 18:56:00,68.6,60.4,30.17,East,99,1.0,8.0,75,0.00,,,0.00,72,Wunderground v.1.15,2013-09-16 22:56:00,
2013-09-16 19:01:00,68.7,60.5,30.17,NE,44,2.0,6.0,75,0.00,,,0.00,76,Wunderground v.1.15,2013-09-16 23:01:00,
2013-09-16 19:06:00,68.7,60.5,30.17,ENE,65,0.0,7.0,75,0.00,,,0.00,74,Wunderground v.1.15,2013-09-16 23:06:00,
2013-09-16 19:11:00,68.6,60.4,30.17,ESE,109,3.0,7.0,75,0.00,,,0.00,54,Wunderground v.1.15,2013-09-16 23:11:00,
2013-09-16 19:16:00,68.5,60.3,30.17,East,101,3.0,7.0,75,0.00,,,0.00,39,Wunderground v.1.15,2013-09-16 23:16:00,
2013-09-16 19:21:00,68.5,60.3,30.17,ENE,69,3.0,5.0,75,0.00,,,0.00,28,Wunderground v.1.15,2013-09-16 23:21:00,
2013-09-16 19:26:00,68.3,60.1,30.17,ENE,62,7.0,8.0,75,0.00,,,0.00,21,Wunderground v.1.15,2013-09-16 23:26:00,
2013-09-16 19:31:00,68.1,59.9,30.17,ENE,64,7.0,7.0,75,0.00,,,0.00,14,Wunderground v.1.15,2013-09-16 23:31:00,
2013-09-16 19:36:00,68.0,59.8,30.17,East,82,6.0,8.0,75,0.00,,,0.00,9,Wunderground v.1.15,2013-09-16 23:36:00,
2013-09-16 19:41:00,67.8,59.6,30.17,East,92,3.0,8.0,75,0.00,,,0.00,5,Wunderground v.1.15,2013-09-16 23:41:00,
2013-09-16 19:46:00,67.7,59.5,30.17,ENE,76,3.0,8.0,75,0.00,,,0.00,0,Wunderground v.1.15,2013-09-16 23:46:00,
2013-09-16 19:51:00,67.5,59.3,30.17,ENE,67,4.0,7.0,75,0.00,,,0.00,0,Wunderground v.1.15,2013-09-16 23:51:00,
2013-09-16 19:56:00,67.4,59.2,30.17,ENE,74,4.0,8.0,75,0.00,,,0.00,0,Wunderground v.1.15,2013-09-16 23:56:00,
2013-09-16 20:01:00,67.2,59.4,30.17,East,81,5.0,5.0,76,0.00,,,0.00,0,Wunderground v.1.15,2013-09-17 00:01:00,
2013-09-16 20:06:00,67.1,58.9,30.17,East,84,2.0,7.0,75,0.00,,,0.00,0,Wunderground v.1.15,2013-09-17 00:06:00,
2013-09-16 20:11:00,67.0,59.2,30.17,ENE,69,4.0,6.0,76,0.00,,,0.00,0,Wunderground v.1.15,2013-09-17 00:11:00,
2013-09-16 20:16:00,67.0,59.2,30.17,ENE,78,4.0,7.0,76,0.00,,,0.00,0,Wunderground v.1.15,2013-09-17 00:16:00,
2013-09-16 20:21:00,66.9,59.1,30.18,East,90,3.0,5.0,76,0.00,,,0.00,0,Wunderground v.1.15,2013-09-17 00:21:00,
2013-09-16 20:26:00,66.9,59.1,30.18,ENE,71,3.0,6.0,76,0.00,,,0.00,0,Wunderground v.1.15,2013-09-17 00:26:00,
2013-09-16 20:31:00,66.8,59.0,30.18,ENE,77,3.0,5.0,76,0.00,,,0.00,0,Wunderground v.1.15,2013-09-17 00:31:00,
2013-09-16 20:36:00,66.8,59.4,30.18,ENE,74,3.0,6.0,77,0.00,,,0.00,0,Wunderground v.1.15,2013-09-17 00:36:00,
2013-09-16 20:41:00,66.7,59.3,30.18,East,83,3.0,6.0,77,0.00,,,0.00,0,Wunderground v.1.15,2013-09-17 00:41:00,
2013-09-16 20:46:00,66.7,59.3,30.18,East,80,2.0,6.0,77,0.00,,,0.00,0,Wunderground v.1.15,2013-09-17 00:46:00,
2013-09-16 20:51:00,66.6,59.2,30.19,ENE,67,2.0,4.0,77,0.00,,,0.00,0,Wunderground v.1.15,2013-09-17 00:51:00,
2013-09-16 20:56:00,66.7,59.3,30.18,ENE,65,1.0,4.0,77,0.00,,,0.00,0,Wunderground v.1.15,2013-09-17 00:56:00,
2013-09-16 21:01:00,66.6,59.2,30.19,ESE,103,1.0,2.0,77,0.00,,,0.00,0,Wunderground v.1.15,2013-09-17 01:01:00,
2013-09-16 21:06:00,66.5,59.1,30.19,East,79,3.0,3.0,77,0.00,,,0.00,0,Wunderground v.1.15,2013-09-17 01:06:00,
2013-09-16 21:11:00,66.5,59.1,30.19,NE,51,2.0,3.0,77,0.00,,,0.00,0,Wunderground v.1.15,2013-09-17 01:11:00,
2013-09-16 21:16:00,66.5,59.1,30.19,ENE,74,2.0,5.0,77,0.00,,,0.00,0,Wunderground v.1.15,2013-09-17 01:16:00,
2013-09-16 21:21:00,66.4,59.0,30.20,East,86,3.0,5.0,77,0.00,,,0.00,0,Wunderground v.1.15,2013-09-17 01:21:00,
2013-09-16 21:26:00,66.5,59.1,30.19,ENE,73,0.0,5.0,77,0.00,,,0.00,0,Wunderground v.1.15,2013-09-17 01:26:00,
2013-09-16 21:31:00,66.5,59.1,30.20,ENE,75,3.0,5.0,77,0.00,,,0.00,0,Wunderground v.1.15,2013-09-17 01:31:00,
2013-09-16 21:36:00,66.4,59.0,30.20,East,101,3.0,6.0,77,0.00,,,0.00,0,Wunderground v.1.15,2013-09-17 01:36:00,
2013-09-16 21:41:00,66.3,58.9,30.20,East,101,2.0,5.0,77,0.00,,,0.00,0,Wunderground v.1.15,2013-09-17 01:41:00,
2013-09-16 21:46:00,66.3,58.9,30.20,East,87,3.0,8.0,77,0.00,,,0.00,0,Wunderground v.1.15,2013-09-17 01:46:00,
2013-09-16 21:51:00,66.3,58.9,30.20,East,93,3.0,7.0,77,0.00,,,0.00,0,Wunderground v.1.15,2013-09-17 01:51:00,
2013-09-16 21:56:00,66.3,58.9,30.20,ENE,59,2.0,7.0,77,0.00,,,0.00,0,Wunderground v.1.15,2013-09-17 01:56:00,
2013-09-16 22:01:00,66.2,58.8,30.20,ENE,69,2.0,5.0,77,0.00,,,0.00,0,Wunderground v.1.15,2013-09-17 02:01:00,
2013-09-16 22:06:00,66.1,59.0,30.20,ENE,71,3.0,6.0,78,0.00,,,0.00,0,Wunderground v.1.15,2013-09-17 02:06:00,
2013-09-16 22:11:00,66.0,58.9,30.20,East,83,2.0,7.0,78,0.00,,,0.00,0,Wunderground v.1.15,2013-09-17 02:11:00,
2013-09-16 22:16:00,66.0,58.6,30.20,East,82,6.0,9.0,77,0.00,,,0.00,0,Wunderground v.1.15,2013-09-17 02:16:00,
2013-09-16 22:21:00,66.0,58.6,30.20,ENE,63,7.0,9.0,77,0.00,,,0.00,0,Wunderground v.1.15,2013-09-17 02:21:00,
2013-09-16 22:26:00,65.9,58.5,30.20,East,84,3.0,10.0,77,0.00,,,0.00,0,Wunderground v.1.15,2013-09-17 02:26:00,
2013-09-16 22:31:00,65.8,58.4,30.20,East,84,6.0,9.0,77,0.00,,,0.00,0,Wunderground v.1.15,2013-09-17 02:31:00,
2013-09-16 22:36:00,65.4,58.0,30.20,East,94,7.0,10.0,77,0.00,,,0.00,0,Wunderground v.1.15,2013-09-17 02:36:00,
2013-09-16 22:41:00,65.4,58.0,30.20,ESE,111,5.0,10.0,77,0.00,,,0.00,0,Wunderground v.1.15,2013-09-17 02:41:00,
2013-09-16 22:46:00,65.1,58.1,30.20,East,92,5.0,10.0,78,0.00,,,0.00,0,Wunderground v.1.15,2013-09-17 02:46:00,
2013-09-16 22:51:00,64.9,57.9,30.20,East,90,5.0,5.0,78,0.00,,,0.00,0,Wunderground v.1.15,2013-09-17 02:51:00,
2013-09-16 22:56:00,64.8,57.8,30.21,ENE,67,5.0,8.0,78,0.00,,,0.00,0,Wunderground v.1.15,2013-09-17 02:56:00,
2013-09-16 23:01:00,64.7,57.7,30.21,East,91,5.0,9.0,78,0.00,,,0.00,0,Wunderground v.1.15,2013-09-17 03:01:00,
2013-09-16 23:06:00,64.5,57.5,30.21,ENE,73,4.0,9.0,78,0.00,,,0.00,0,Wunderground v.1.15,2013-09-17 03:06:00,
2013-09-16 23:11:00,64.3,57.6,30.21,ENE,70,3.0,7.0,79,0.00,,,0.00,0,Wunderground v.1.15,2013-09-17 03:11:00,
2013-09-16 23:16:00,63.9,57.6,30.21,East,79,5.0,9.0,80,0.00,,,0.00,0,Wunderground v.1.15,2013-09-17 03:16:00,
2013-09-16 23:21:00,63.7,57.4,30.21,East,84,7.0,9.0,80,0.00,,,0.00,0,Wunderground v.1.15,2013-09-17 03:21:00,
2013-09-16 23:26:00,63.5,57.2,30.21,East,80,5.0,9.0,80,0.00,,,0.00,0,Wunderground v.1.15,2013-09-17 03:26:00,
2013-09-16 23:31:00,63.3,57.4,30.22,ENE,78,4.0,8.0,81,0.00,,,0.00,0,Wunderground v.1.15,2013-09-17 03:31:00,
2013-09-16 23:36:00,63.3,57.4,30.22,ENE,78,4.0,8.0,81,0.00,,,0.00,0,Wunderground v.1.15,2013-09-17 03:36:00,
2013-09-16 23:41:00,63.1,57.2,30.22,ENE,67,3.0,6.0,81,0.00,,,0.00,0,Wunderground v.1.15,2013-09-17 03:41:00,
2013-09-16 23:46:00,62.8,57.2,30.22,ESE,113,1.0,7.0,82,0.00,,,0.00,0,Wunderground v.1.15,2013-09-17 03:46:00,
2013-09-16 23:51:00,62.7,57.1,30.22,ESE,117,3.0,5.0,82,0.00,,,0.00,0,Wunderground v.1.15,2013-09-17 03:51:00,
2013-09-16 23:56:00,62.5,56.9,30.22,SE,131,4.0,6.0,82,0.00,,,0.00,0,Wunderground v.1.15,2013-09-17 03:56:00,